Location: Tafessasset
(32.5899°N, 5.4824°W)
Time: 08:58:26
(UTC+00:00)

Lacrosse 4 Rocket - Pass Details

Date: 18 February 2020
Orbit: 537 x 622 km, 68.0° (Epoch: 08 April)

Event Time Altitude Azimuth Distance (km) Brightness Sun altitude
Exits shadow 04:46:12 11° 160° (SSE) 1,888 4.2 -29.4°
Drops below altitude 10° 04:46:26 10° 160° (SSE) 1,978 4.3 -29.3°
Sets 04:48:41 0° 159° (SSE) 2,876 5.2 -28.8°
